STARLINK-6226, 56544

Orbit data source: Space-Track

STARLINK-6226, 56544 is a payload satellite owned by SpaceX/Seattle (US) in LEO that was launched on Sun, 14 May 2023 UTC via an FALCON 9 launch vehicle from the Air Force Eastern Test Range (AFETR). Payload-class satellites include a variety of spacecraft equipped with specific instruments for various scientific and technological missions. These include communications satellites like Starlink; space stations such as the ISS; scientific satellites like the Hubble; Earth observation satellites from companies like Planet Labs, Umbra, and HawkEye 360; GPS; miniature CubeSats for education and research; and military/defense satellites.

Loading next visibility...
Identifier
56544, 2023-065AT
Orbit
LEO
Country
Flag of USUS
Related business
Manufacturer
SpaceX/Seattle
Mission
Operational Commercial Communications
Bus & Motor
STARLINK, Unknown motor
Mass
305 kg wet, ~290 kg dry
Launch date (UTC)
2023-05-14 (3 years ago)
Launch vehicle
FALCON 9
Launch site
Air Force Eastern Test Range (AFETR)
Object type
Payload
Rocket body
Debris
Shape & HBR
Box + 1 Pan, 10.1 m
Radar Cross Section
11.087 m², Large (>1 m²)

Expand to show TLE details & history
Last TLE update: 2 days ago

TLE from 2 days ago
0 STARLINK-6226
1 56544U 23065AT  26170.93584095  .00000438  00000-0  25464-4 0  9999
2 56544  43.0047   5.7993 0001604 267.8917  92.1751 15.27579617172115
Epoch: 2026-06-19T22:27Z
TLE epoch observation values (Epoch: 2026-06-19T22:27:36.658Z)
Latitude
-0°
Longitude
120.73888°
Altitude
482.868 km
Speed
7.626 km/s
True Right ascension
00h 23m 11s
True Declination
0° 00' 00"
Sunlit
Object was in daylight at epoch
Visualization orbit readout
Latitude
Unknown
Longitude
Unknown
Altitude
Unknown
Speed
Unknown
Apparent Right ascension
Unknown
Apparent Declination
Unknown
Sunlit
N/A
Visualization observer readout
Local Sidereal Time
21:23:25
Azimuth
Unknown
Elevation
Unknown
Doppler factor
Unknown
Orbital elements
Apogee altitude
486.095 km
Perigee altitude
483.894 km
Semi-major axis
6,863.132 km
Eccentricity
0.00016
Inclination
43.0047°
RAAN
5.7993°
Arg. of periapsis
267.8917°
True anomaly
92.19347°
Mean anomaly
92.1751°
Eccentric anomaly
92.18428°
Mean motion
3.81733 °/min
Orbital period
94.31 mins
BSTAR
0.000025464
Loading maneuver chart data...
Computing Atmospheric mass density...
Loading historical data...
Loading historical data...
Loading historical data...
Loading historical data...
Loading historical data...
Loading historical data...
Loading historical data...

Documentation

Showing up to 5 results
|